Regional Weather Roundup
Issued by NWS

Home | Current Version | Previous Version | Graphics & Text | Print | Product List | Glossary On
Versions: 1 2 3 4 5 6 7 8 9 10 11 12 13 14 15 16 17 18 19 20 21 22 23 24 25 26 27 28 29 30 31 32 33 34 35 36
000
ASUS45 KCYS 222310
RWRWY

WYOMING REGIONAL WEATHER ROUNDUP
NATIONAL WEATHER SERVICE CHEYENNE WY
500 PM MDT WED OCT 22 2014

NOTE:  "FAIR" INDICATES FEW OR NO CLOUDS BELOW 12,000 FEET
WITH NO SIGNIFICANT WEATHER AND/OR OBSTRUCTIONS TO VISIBILITY.

WYZ001-230000-
YELLOWSTONE NATIONAL PARK

CITY           SKY/WX    TMP DP  RH WIND       PRES   REMARKS
LK YELLOWSTONE   N/A     38  25  59 VRB3      30.22S
W YELLOWSTONE  NOT AVBL

$$
WYZ002>013-054>058-071-098>099-230000-
NORTHERN WYOMING

CITY           SKY/WX    TMP DP  RH WIND       PRES   REMARKS
JACKSON        SUNNY     52  21  30 SW9       30.17S
CODY           SUNNY     57  21  24 W16G26    30.02S
GREYBULL       SUNNY     61  22  22 SE7       30.00F
WORLAND        SUNNY     62  21  20 E6        30.01F
SHERIDAN       SUNNY     63  23  21 CALM      29.97F
BUFFALO        SUNNY     59  23  25 N5        30.01R
GILLETTE       SUNNY     61  23  23 CALM      29.99S
HULETT         FAIR      59  27  29 W8        30.02
NEWCASTLE      FAIR      59  23  25 SW7       30.03

$$
WYZ014>020-022>026-101>103-230000-
CENTRAL WYOMING

CITY           SKY/WX    TMP DP  RH WIND       PRES   REMARKS
BIG PINEY      MOSUNNY   52  16  24 CALM      30.19S
PINEDALE       CLEAR     46  19  34 CALM      30.20S
DUBOIS         FAIR      48  12  23 N17G24    30.12S
LANDER         SUNNY     58  21  24 NE5       30.05S
RIVERTON       SUNNY     57  17  21 SW10      30.07S
CASPER         SUNNY     59  13  16 W17G28    30.05S
DOUGLAS        SUNNY     62  13  14 W16G22    30.04S

$$
WYZ021-027>030-104>119-230000-
SOUTHERN WYOMING

CITY           SKY/WX    TMP DP  RH WIND       PRES   REMARKS
EVANSTON       MOSUNNY   53  18  25 W18       30.22R
KEMMERER       PTCLDY    50  19  29 W13       30.22S
FORT BRIDGER   FAIR      56  17  21 W18       30.23S
ROCK SPRINGS   SUNNY     52  20  28 W14       30.19F
DIXON          FAIR      55  32  41 W7        30.23S
RAWLINS        SUNNY     53  15  22 SW20G28   30.17S
SARATOGA       FAIR      52  23  32 W15G26    30.20S
LARAMIE        SUNNY     54  22  28 W18G28    30.15R
CHEYENNE       CLOUDY    63  29  27 W13       30.10R
TORRINGTON     SUNNY     65  19  17 SW16      30.02S
PINE BLUFFS    FAIR      57  36  44 E6        30.08S

$$



USA.gov is the U.S. government's official web portal to all federal, state and local government web resources and services.